7 * 24
多渠道服务支持
STARLINK-4706是美国太空探索技术公司(SpaceX)于2022年9月11日发射的星链(Starlink)低轨互联网卫星,属于星链v1.5批次,运行于近地轨道,轨道倾角约70度,近地点高度约570公里,远地点高度约574公里,绕行地球周期约96分钟,目前仍在正常工作,为全球互联网覆盖提供服务,支撑偏远地区网络接入,助力星链星座全球通信组网。
美国
(US)
| 数据来源 | 国际轨道数据 |
| 星历时间: | 2026-09-04T14:11:55+0800 1天前 查看轨道信息 |
| 半长轴: | 6848.877km |
| 偏心率: | 0.0001739 |
| 轨道倾角: | 53.161° |
| 近地点辐角 | 75.728° |
| 升交点赤经 | 181.444° |
| 平近点角 | 284.391° |
| 近地点: | 469.548km |
| 远地点: | 471.932km |
| 周期: | 94.013分钟 |
| 每日圈数: | 15.317 |
| 事件ID | 空间交会对象 | 最接近时刻(TCA) | 交会距离 | 交会风险概率(CRP) | 交会风险指数(CRI) | 操作 |
|---|---|---|---|---|---|---|
| CDM_260906-195305-377906-056222 |
STARLINK-4706
(53779)
HYPERFIELD-1A
(60562) | 2026-09-06T 19:53:47+0000 |
2.428 km
极远距离 | 1.837617E-6 低风险 | 0.4 | |
| CDM_260906-084405-377906-976121 |
STARLINK-4706
(53779)
STARLINK-38069
(69761) | 2026-09-06T 08:44:41+0000 |
2.862 km
极远距离 | 1.180023E-6 低风险 | 0.36 |